This is the latest recevied weather packets stored in our database for station/object K0CVS. If no packets are shown the sender has not sent any weather packets the latest 10 day(s).
| Time | Temp. | Humidity | Pressure | Rain* | Wind** | Luminosity | Snow |
|---|---|---|---|---|---|---|---|
| 1788555313 | 36.67° C | 42% | 1013.2 hPa | 0 mm | - | 450 W/m² | - |
| 1788555010 | 37.22° C | 41% | 1013.4 hPa | 0 mm | - | 460 W/m² | - |
| 1788554706 | 37.22° C | 40% | 1013.2 hPa | 0 mm | - | 470 W/m² | - |
| 1788554401 | 37.22° C | 41% | 1013.7 hPa | 0 mm | - | 479 W/m² | - |
| 1788554098 | 36.67° C | 41% | 1013.5 hPa | 0 mm | - | 50 W/m² | - |
| 1788553794 | 36.11° C | 43% | 1013.7 hPa | 0 mm | - | 66 W/m² | - |
| 1788553489 | 36.11° C | 42% | 1013.6 hPa | 0 mm | - | 45 W/m² | - |
| 1788553185 | 36.11° C | 42% | 1013.7 hPa | 0 mm | - | 50 W/m² | - |
| 1788552880 | 36.67° C | 41% | 1013.6 hPa | 0 mm | - | 50 W/m² | - |
| 1788552576 | 36.67° C | 42% | 1013.6 hPa | 0 mm | - | 50 W/m² | - |
| 1788552274 | 36.67° C | 42% | 1013.9 hPa | 0 mm | - | 50 W/m² | - |
| 1788551969 | 36.67° C | 41% | 1013.9 hPa | 0 mm | - | 51 W/m² | - |
| 1788551668 | 36.67° C | 42% | 1013.9 hPa | 0 mm | - | 54 W/m² | - |
| 1788551367 | 37.22° C | 41% | 1013.9 hPa | 0 mm | - | 579 W/m² | - |
| 1788551067 | 37.22° C | 42% | 1013.9 hPa | 0 mm | - | 588 W/m² | - |
| 1788550762 | 37.22° C | 41% | 1014 hPa | 0 mm | - | 592 W/m² | - |
| 1788550458 | 36.67° C | 42% | 1014.1 hPa | 0 mm | - | 605 W/m² | - |
| 1788550153 | 36.67° C | 42% | 1014 hPa | 0 mm | - | 608 W/m² | - |
| 1788549848 | 36.67° C | 43% | 1014 hPa | 0 mm | - | 619 W/m² | - |
| 1788549545 | 37.22° C | 41% | 1014.1 hPa | 0 mm | - | 615 W/m² | - |
| 1788549241 | 37.22° C | 41% | 1014 hPa | 0 mm | - | 632 W/m² | - |
| 1788548938 | 36.67° C | 44% | 1014.1 hPa | 0 mm | - | 634 W/m² | - |
| 1788548638 | 37.22° C | 42% | 1014.1 hPa | 0 mm | - | 637 W/m² | - |
| 1788548334 | 36.67° C | 42% | 1014.1 hPa | 0 mm | - | 642 W/m² | - |
| 1788548030 | 37.22° C | 43% | 1014.1 hPa | 0 mm | - | 646 W/m² | - |
* Rain latest hour (hover to see other rain measurements)
** Current wind speed in m/s (hover to see current wind gust speed)